Total_Precipitation_Accumulation
0.54 0.52 0.50 0.47 0.53 0.65 0.79 0.93 1.05 0.85 0.45 0.26 0.33 0.34 0.33 0.28 0.31 0.25 0.15 0.18 0.16 0.09 0.10 0.14 0.16 0.21 0.27 0.38 0.53 0.70 0.96 1.26 1.26 1.15 1.09 1.09 0.79 0.59
0.50 0.51 0.56 0.59 0.55 0.49 0.45 0.52 0.66 0.77 0.55 0.16 0.16 0.17 0.21 0.34 0.57 0.64 0.56 0.63 0.46 0.33 0.27 0.26 0.23 0.18 0.19 0.23 0.27 0.31 0.41 0.65 0.82 0.84 0.84 0.92 1.10 0.97
0.23 0.27 0.33 0.43 0.57 0.65 0.75 0.81 0.85 0.93 0.81 0.32 0.24 0.24 0.26 0.29 0.30 0.34 0.42 0.55 0.67 0.77 0.71 0.69 0.57 0.48 0.44 0.41 0.37 0.34 0.32 0.33 0.42 0.49 0.53 0.53 0.55 0.79
0.01 0.02 0.04 0.08 0.15 0.23 0.31 0.45 0.64 0.80 0.95 0.71 0.49 0.52 0.59 0.62 0.56 0.46 0.42 0.44 0.45 0.64 0.81 0.93 0.90 0.81 0.79 0.79 0.69 0.57 0.46 0.37 0.31 0.31 0.35 0.45 0.49 0.49
0.00 0.00 0.00 0.00 0.01 0.03 0.06 0.11 0.17 0.23 0.32 0.32 0.22 0.24 0.34 0.49 0.56 0.56 0.55 0.58 0.57 0.77 0.84 0.91 0.98 0.96 0.87 0.82 0.86 0.92 0.91 0.72 0.50 0.42 0.40 0.35 0.41 0.57
0.00 0.00 0.00 0.00 0.00 0.00 0.00 0.00 0.00 0.01 0.02 0.06 0.06 0.07 0.11 0.16 0.22 0.26 0.27 0.28 0.28 0.32 0.46 0.53 0.63 0.68 0.78 0.80 0.73 0.70 0.78 0.94 1.04 0.94 0.70 0.59 0.49 0.42
0.00 0.00 0.00 0.00 0.00 0.00 0.00 0.00 0.00 0.00 0.00 0.01 0.02 0.01 0.01 0.01 0.02 0.06 0.09 0.16 0.20 0.30 0.29 0.29 0.26 0.23 0.28 0.43 0.59 0.72 0.73 0.76 0.84 0.93 0.94 0.84 0.77 0.70
0.00 0.00 0.00 0.00 0.00 0.00 0.00 0.00 0.00 0.00 0.00 0.01 0.01 0.01 0.01 0.01 0.00 0.00 0.01 0.05 0.08 0.14 0.18 0.18 0.21 0.20 0.16 0.16 0.28 0.41 0.54 0.62 0.65 0.66 0.75 0.90 0.86 0.77
0.00 0.00 0.00 0.00 0.00 0.00 0.00 0.00 0.00 0.00 0.01 0.01 0.01 0.00 0.01 0.01 0.02 0.02 0.02 0.03 0.03 0.03 0.09 0.15 0.16 0.21 0.19 0.23 0.25 0.23 0.32 0.41 0.47 0.53 0.60 0.63 0.77 0.94
0.00 0.00 0.00 0.00 0.00 0.00 0.00 0.00 0.00 0.00 0.00 0.00 0.00 0.01 0.01 0.02 0.03 0.04 0.03 0.02 0.01 0.01 0.06 0.14 0.11 0.16 0.16 0.21 0.32 0.30 0.32 0.34 0.35 0.38 0.43 0.53 0.59 0.65
0.00 0.00 0.00 0.00 0.00 0.00 0.00 0.00 0.00 0.00 0.00 0.00 0.00 0.01 0.01 0.01 0.02 0.03 0.05 0.06 0.05 0.05 0.05 0.07 0.06 0.11 0.15 0.17 0.20 0.29 0.31 0.37 0.43 0.49 0.42 0.41 0.50 0.58
0.00 0.00 0.00 0.00 0.00 0.01 0.01 0.01 0.03 0.00 0.00 0.00 0.00 0.00 0.00 0.00 0.00 0.01 0.01 0.04 0.06 0.08 0.06 0.08 0.07 0.06 0.12 0.12 0.15 0.22 0.24 0.28 0.30 0.36 0.58 0.64 0.52 0.50
0.00 0.00 0.00 0.00 0.01 0.02 0.04 0.03 0.04 0.03 0.02 0.00 0.00 0.00 0.00 0.00 0.00 0.00 0.02 0.06 0.08 0.08 0.05 0.11 0.13 0.11 0.16 0.10 0.06 0.11 0.12 0.16 0.20 0.24 0.32 0.45 0.62 0.55
0.00 0.00 0.00 0.00 0.03 0.04 0.03 0.02 0.02 0.03 0.02 0.02 0.01 0.00 0.00 0.00 0.00 0.00 0.02 0.07 0.14 0.19 0.15 0.18 0.17 0.12 0.15 0.16 0.11 0.10 0.12 0.11 0.14 0.15 0.20 0.38 0.50 0.56
0.01 0.01 0.02 0.03 0.03 0.02 0.01 0.01 0.02 0.01 0.01 0.01 0.00 0.00 0.00 0.00 0.01 0.01 0.03 0.07 0.14 0.19 0.25 0.38 0.38 0.29 0.24 0.19 0.13 0.10 0.18 0.19 0.14 0.13 0.16 0.27 0.38 0.50
0.00 0.02 0.03 0.04 0.02 0.01 0.00 0.00 0.00 0.01 0.02 0.04 0.03 0.02 0.02 0.02 0.02 0.02 0.03 0.05 0.10 0.14 0.22 0.31 0.39 0.43 0.44 0.39 0.30 0.20 0.17 0.22 0.26 0.20 0.19 0.25 0.34 0.42
0.05 0.04 0.01 0.01 0.01 0.01 0.00 0.00 0.01 0.01 0.02 0.02 0.04 0.04 0.02 0.01 0.01 0.01 0.04 0.07 0.12 0.12 0.16 0.25 0.33 0.41 0.43 0.40 0.41 0.36 0.27 0.19 0.17 0.23 0.25 0.26 0.25 0.31
0.05 0.05 0.02 0.02 0.02 0.02 0.02 0.01 0.01 0.01 0.01 0.01 0.02 0.01 0.02 0.02 0.02 0.01 0.05 0.10 0.12 0.11 0.16 0.23 0.33 0.49 0.57 0.53 0.46 0.39 0.35 0.26 0.18 0.14 0.18 0.24 0.20 0.17
0.03 0.01 0.01 0.01 0.01 0.01 0.01 0.01 0.01 0.00 0.00 0.01 0.03 0.03 0.04 0.04 0.05 0.04 0.04 0.11 0.13 0.11 0.16 0.24 0.38 0.55 0.61 0.45 0.35 0.33 0.34 0.35 0.27 0.20 0.18 0.18 0.16 0.12
0.01 0.01 0.01 0.01 0.01 0.02 0.02 0.02 0.03 0.02 0.02 0.02 0.02 0.03 0.05 0.10 0.08 0.06 0.08 0.11 0.14 0.16 0.20 0.25 0.37 0.42 0.47 0.31 0.34 0.36 0.34 0.39 0.36 0.25 0.21 0.21 0.21 0.22
0.01 0.01 0.02 0.02 0.02 0.03 0.03 0.04 0.05 0.05 0.06 0.10 0.07 0.07 0.06 0.08 0.07 0.07 0.12 0.13 0.17 0.18 0.18 0.18 0.19 0.37 0.55 0.55 0.63 0.53 0.50 0.48 0.45 0.34 0.21 0.20 0.24 0.27
0.01 0.02 0.02 0.02 0.03 0.04 0.04 0.07 0.11 0.08 0.06 0.05 0.03 0.04 0.04 0.07 0.10 0.09 0.09 0.13 0.11 0.10 0.13 0.18 0.35 0.47 0.56 0.54 0.37 0.27 0.34 0.42 0.47 0.45 0.40 0.32 0.28 0.20
0.01 0.02 0.02 0.02 0.05 0.08 0.10 0.11 0.09 0.05 0.04 0.07 0.05 0.03 0.05 0.08 0.05 0.07 0.07 0.11 0.14 0.15 0.13 0.19 0.33 0.43 0.46 0.39 0.37 0.37 0.36 0.38 0.33 0.36 0.38 0.32 0.23 0.13